Вернуться в каталог

FENGYUN 1C DEB

АктивенSSO
NORAD 36216·DEBRIS·🇨🇳 China

Запущен May 10, 1999 с Taiyuan Satellite Launch Center

Loading…

Ближайшие Пролёты (ближайшие 24 часа)

TLE

СвежийSource: Space-Track

Эпоха: Sep 12, 2026, 07:28 UTC

1 36216U 99025DUR 26255.31170458  .00000382  00000-0  20122-3 0  9995
2 36216  98.5945 272.4174 0043526 308.1026  51.6228 14.19190620682527

Отслеживайте FENGYUN 1C DEB в реальном времени с AllMySat

Download on the App Store